DateTimeUTC,F1_A11,F1_S11,BsB_S11,BsG_S11,BsR_S11,BbsB_S11,BbsG_S11,BbsR_S11,BaB_A11,BaG_A11,BaR_A11,Tu_S11,T_S11,Uu_S11,U_S11,P_S11,T1_A11
2021-06-23T01:00:00Z,00040200,20000000,,,,,,,0000.09,-000.07,0000.01,18.2,25.2,03.4,02.2,0675.7,31.1
2021-06-23T01:01:00Z,00040200,20000000,,,,,,,0000.25,0000.51,0000.26,18.3,25.3,03.4,02.2,0675.7,31.1
2021-06-23T01:02:00Z,00040200,20000000,,,,,,,-000.28,-000.68,-000.27,18.3,25.3,03.4,02.2,0675.7,31.1
2021-06-23T01:03:00Z,00040200,60000000,,,,,,,-000.81,-000.58,-000.47,18.3,25.3,03.4,02.2,0675.7,31.1
2021-06-23T01:04:00Z,00040200,40000000,0000.83,0000.14,0000.33,-000.55,0000.35,0000.05,-000.27,-000.65,-000.27,18.5,25.2,03.3,02.2,0676.6,31.1
2021-06-23T01:05:00Z,00040200,00000000,0000.45,0000.52,0000.28,0000.08,0000.11,0000.20,0000.17,0000.67,-000.05,18.5,25.1,03.2,02.1,0676.7,31.1
2021-06-23T01:06:00Z,00040200,00000000,0001.18,0000.88,0000.52,-000.44,0000.05,0000.12,0001.17,0000.99,0000.92,18.5,25.1,03.3,02.2,0676.7,31.1
2021-06-23T01:07:00Z,00040200,00000000,0001.66,0000.85,0000.69,0000.17,-000.03,-000.02,0001.25,0000.91,0000.66,18.4,25.1,03.4,02.3,0676.7,31.1
2021-06-23T01:08:00Z,00040200,00000000,0000.77,0000.66,0000.65,-000.17,0000.45,0000.19,0000.33,0000.78,0000.51,18.4,25.0,03.7,02.5,0676.7,31.1
2021-06-23T01:09:00Z,00040200,00000000,0002.10,0000.80,0000.50,0000.14,0000.27,0000.01,0000.63,0000.60,0000.21,18.4,25.0,03.7,02.4,0676.7,31.1
2021-06-23T01:10:00Z,00040200,00000000,0001.34,0000.65,0000.41,0000.24,0000.11,0000.08,0000.74,0000.45,0000.93,18.3,25.0,03.8,02.5,0676.7,31.1
2021-06-23T01:11:00Z,00040200,00000000,0001.11,0000.52,0000.72,-000.28,0000.10,0000.24,0001.89,0001.52,0000.88,18.3,25.0,03.8,02.5,0676.7,31.1
2021-06-23T01:12:00Z,00040200,00000000,0001.01,0000.70,0000.66,0000.28,0000.35,0000.12,-000.83,-000.31,-000.17,18.3,24.9,04.1,02.7,0676.7,31.1
2021-06-23T01:13:00Z,00040200,00000000,0001.20,0000.55,0000.35,-000.16,0000.15,0000.32,0000.44,0000.35,0000.04,18.3,24.9,03.8,02.5,0676.7,31.1
2021-06-23T01:14:00Z,00040200,00000000,0000.99,0001.13,0000.13,-000.12,0000.16,0000.06,-000.27,-000.07,0000.19,18.4,24.9,03.6,02.4,0676.7,31.1
2021-06-23T01:15:00Z,00040200,00000000,0001.88,0000.51,0000.51,-000.30,0000.34,0000.01,0000.98,-000.19,0000.47,18.5,25.0,03.6,02.4,0676.7,31.1
2021-06-23T01:16:00Z,00040200,00000000,0001.25,0000.85,0000.42,-000.22,0000.22,0000.29,-000.13,0000.82,0000.17,18.5,25.0,03.5,02.4,0676.8,31.1
2021-06-23T01:17:00Z,00040200,00000000,0001.92,0000.72,0000.75,-000.15,0000.17,-000.03,0000.14,0000.01,0000.16,18.6,25.1,03.6,02.4,0676.8,31.1
2021-06-23T01:18:00Z,00040200,00000000,0001.09,0001.21,0000.48,-000.08,0000.30,-000.09,0000.73,0000.52,0000.09,18.6,25.1,03.5,02.4,0676.8,31.1
2021-06-23T01:19:00Z,00040200,00000000,0001.66,0000.83,0000.56,0000.03,0000.29,-000.14,0001.28,0001.11,0001.47,18.6,25.1,03.5,02.3,0676.8,31.1
2021-06-23T01:20:00Z,00040200,00000000,0001.21,0000.65,0000.53,-000.05,0000.02,0000.20,-000.10,0000.49,-000.25,18.6,25.1,03.7,02.5,0676.8,31.1
2021-06-23T01:21:00Z,00040200,00000000,0001.40,0000.57,0000.34,0000.08,0000.26,0000.05,0000.78,0000.02,0000.88,18.6,25.0,03.6,02.4,0676.8,31.1
2021-06-23T01:22:00Z,00040200,00000000,0001.50,0000.75,0000.40,-000.25,0000.17,-000.21,0000.34,0000.42,-000.25,18.5,25.0,03.6,02.4,0676.8,31.1
2021-06-23T01:23:00Z,00040200,00000000,0001.35,0000.47,0000.52,-000.21,0000.19,0000.22,0000.07,0000.44,0000.63,18.5,25.0,03.6,02.4,0676.8,31.1
2021-06-23T01:24:00Z,00040200,00000000,0001.24,0000.81,0000.62,-000.26,0000.18,0000.18,0000.78,0000.69,-000.16,18.5,25.0,03.5,02.3,0676.8,31.1
2021-06-23T01:25:00Z,00040200,00000000,0000.85,0000.54,0000.48,0000.10,0000.30,-000.20,0000.79,0000.58,0000.70,18.4,25.0,03.6,02.4,0676.7,31.1
2021-06-23T01:26:00Z,00040200,00000000,0000.10,0000.48,0000.45,-000.44,0000.26,0000.09,-000.43,-000.33,-000.46,18.4,24.9,03.6,02.4,0676.7,31.1
2021-06-23T01:27:00Z,00040200,00000000,0000.62,0000.53,0000.25,-000.15,0000.25,-000.19,0000.15,-000.11,0000.77,18.3,24.9,03.6,02.4,0676.7,31.1
2021-06-23T01:28:00Z,00040200,00000000,0000.44,-000.15,0000.31,-000.38,0000.20,0000.18,0000.06,0000.39,-000.16,18.3,24.9,03.5,02.3,0676.7,31.1
2021-06-23T01:29:00Z,00040200,00000000,0000.36,0000.20,0000.20,0000.31,0000.03,0000.10,0000.15,-000.37,-000.12,18.4,24.9,03.4,02.3,0676.7,31.1
2021-06-23T01:30:00Z,00040200,00000000,0000.39,0000.14,-000.08,-000.49,-000.01,-000.05,-000.20,0000.23,-000.06,18.5,25.0,03.5,02.3,0676.8,31.1
2021-06-23T01:31:00Z,00040200,00000000,0000.23,0000.07,0000.04,-000.12,-000.02,0000.20,0000.20,-000.03,-000.06,18.6,25.0,03.3,02.2,0676.7,31.1
2021-06-23T01:32:00Z,00040200,00000000,0000.68,0000.12,0000.10,-000.29,-000.10,0000.16,-000.30,-000.12,0000.05,18.6,25.0,03.4,02.3,0676.7,31.1
2021-06-23T01:33:00Z,00040200,00000000,0000.43,0000.25,0000.09,-000.37,0000.24,-000.28,0000.11,0000.61,0000.48,18.6,25.0,03.4,02.3,0676.7,31.1
2021-06-23T01:34:00Z,00040200,00000000,0000.65,0000.02,0000.23,0000.01,0000.01,0000.04,0000.41,-000.11,-000.04,18.5,25.0,03.2,02.2,0676.8,31.1
2021-06-23T01:35:00Z,00040200,00000000,0000.48,0000.14,0000.17,0000.19,0000.06,0000.33,-000.37,-000.31,-000.04,18.5,25.0,03.3,02.2,0676.7,31.1
2021-06-23T01:36:00Z,00040200,00000000,0000.72,0000.38,0000.37,-000.44,0000.23,-000.04,0000.72,0000.68,0000.11,18.5,25.0,03.2,02.2,0676.7,31.1
2021-06-23T01:37:00Z,00040200,00000000,0001.38,0000.47,0000.35,0000.46,0000.26,0000.04,0000.22,0000.04,0000.39,18.4,24.9,03.2,02.2,0676.7,31.1
2021-06-23T01:38:00Z,00040200,00000000,0001.13,0000.91,0000.61,0000.15,0000.19,0000.08,0001.08,0000.64,0000.32,18.4,24.9,03.3,02.2,0676.7,31.1
2021-06-23T01:39:00Z,00040200,00000000,0000.15,0000.63,0000.38,-000.13,-000.11,-000.14,-000.42,0000.22,0000.30,18.4,24.9,03.3,02.2,0676.7,31.1
2021-06-23T01:40:00Z,00040200,00000000,-000.28,0000.47,0000.17,-000.31,0000.15,0000.12,-000.14,0000.22,-000.01,18.3,24.9,03.3,02.2,0676.7,31.1
2021-06-23T01:41:00Z,00040200,00000000,0000.39,0000.31,0000.27,0000.11,0000.23,-000.23,0000.09,-000.38,-000.43,18.3,24.8,03.3,02.2,0676.8,31.1
2021-06-23T01:42:00Z,00040200,00000000,0000.42,0000.03,-000.02,-000.30,0000.13,0000.01,-000.25,-000.66,0000.03,18.2,24.8,03.2,02.1,0676.7,31.1
2021-06-23T01:43:00Z,00040200,00000000,0000.35,0000.30,0000.23,-000.08,0000.13,0000.03,-000.11,0000.33,0000.18,18.3,24.8,03.1,02.1,0676.7,31.1
2021-06-23T01:44:00Z,00040200,00000000,0001.43,0000.53,0000.10,0000.02,-000.03,-000.30,0000.16,0000.30,0000.52,18.3,24.8,03.0,02.0,0676.8,31.1
2021-06-23T01:45:00Z,00040200,00000000,0001.43,0001.00,0000.41,0000.35,0000.41,0000.19,0000.51,0000.34,0000.04,18.4,24.9,02.9,02.0,0676.8,31.1
2021-06-23T01:46:00Z,00040200,00000000,0001.23,0000.80,0000.37,-000.22,0000.09,0000.04,0000.52,0000.59,0000.30,18.5,24.9,02.9,01.9,0676.8,31.1
2021-06-23T01:47:00Z,00040200,00000000,0001.50,0000.90,0000.89,0000.08,0000.17,0000.09,0000.32,0000.04,0000.21,18.5,24.9,02.8,01.9,0676.8,31.1
2021-06-23T01:48:00Z,00040200,00000000,0000.86,0000.68,0000.63,0000.42,0000.28,0000.12,-000.05,-000.09,0000.02,18.5,24.9,02.8,01.9,0676.8,31.1
2021-06-23T01:49:00Z,00040200,00000000,0000.18,0000.24,0000.06,-000.13,0000.12,0000.09,-000.27,0000.11,0000.09,18.5,24.9,02.7,01.8,0676.8,31.1
2021-06-23T01:50:00Z,00040200,00000000,0000.23,0000.19,0000.16,0000.08,0000.07,0000.30,0000.45,-000.07,-000.06,18.4,24.9,02.7,01.8,0676.8,31.1
2021-06-23T01:51:00Z,00040200,00000000,0001.47,0000.51,0000.69,0000.29,0000.18,0000.26,0000.06,-000.09,0000.10,18.4,24.9,02.7,01.8,0676.8,31.1
2021-06-23T01:52:00Z,00040200,00000000,0001.70,0001.08,0000.60,-000.06,0000.36,0000.31,0000.24,0000.47,0000.08,18.3,24.8,02.7,01.8,0676.8,31.1
2021-06-23T01:53:00Z,00040200,00000000,0001.73,0000.99,0000.62,0000.47,0000.41,0000.00,0000.52,0000.63,0000.57,18.3,24.8,02.7,01.8,0676.8,31.1
2021-06-23T01:54:00Z,00040200,00000000,0000.64,0000.95,0000.63,-000.53,0000.02,0000.01,-000.05,0000.35,0000.34,18.3,24.8,02.6,01.7,0676.8,31.1
2021-06-23T01:55:00Z,00040200,00000000,0001.26,0000.68,0000.76,-000.10,0000.15,0000.15,0000.82,0000.32,0000.25,18.2,24.8,02.8,01.8,0676.8,31.0
2021-06-23T01:56:00Z,00040200,00000000,0001.21,0000.66,0000.66,-000.19,0000.34,0000.09,0000.33,0000.89,0000.52,18.2,24.7,02.8,01.9,0676.8,31.0
2021-06-23T01:57:00Z,00040200,40000000,,,,,,,0001.81,0001.09,0000.98,18.2,24.8,02.8,01.9,0676.9,31.0
2021-06-23T01:58:00Z,00040200,60000000,,,,,,,-000.28,0000.07,-000.24,17.9,24.9,03.0,01.9,0675.8,31.0
2021-06-23T01:59:00Z,00040200,20000000,,,,,,,0000.27,-000.38,-000.07,17.9,25.0,02.9,01.9,0675.8,31.0
